Time,TemperatureF,DewpointF,PressureIn,WindDirection,WindDirectionDegrees,WindSpeedMPH,WindSpeedGustMPH,Humidity,HourlyPrecipIn,Conditions,Clouds,dailyrainin,SoftwareType,DateUTC
2013-04-26 00:07:00,64.1,62.0,30.20,East,80,0.0,0.0,94,0.00,,,0.00,weatherlink.com 1.10,2013-04-26 04:07:00,
2013-04-26 00:22:00,63.5,62.0,30.20,East,80,0.0,0.0,94,0.00,,,0.00,weatherlink.com 1.10,2013-04-26 04:22:00,
2013-04-26 00:37:00,63.1,62.0,30.20,East,80,0.0,1.0,95,0.00,,,0.00,weatherlink.com 1.10,2013-04-26 04:37:00,
2013-04-26 00:52:00,63.0,62.0,30.20,East,80,0.0,0.0,96,0.00,,,0.00,weatherlink.com 1.10,2013-04-26 04:52:00,
2013-04-26 01:07:00,62.8,62.0,30.20,East,80,0.0,0.0,96,0.00,,,0.00,weatherlink.com 1.10,2013-04-26 05:07:00,
2013-04-26 01:22:00,62.3,61.0,30.20,East,80,0.0,0.0,96,0.00,,,0.00,weatherlink.com 1.10,2013-04-26 05:22:00,
2013-04-26 01:37:00,61.8,61.0,30.20,East,80,0.0,0.0,97,0.00,,,0.00,weatherlink.com 1.10,2013-04-26 05:37:00,
2013-04-26 01:52:00,61.5,60.0,30.20,East,80,0.0,0.0,96,0.00,,,0.00,weatherlink.com 1.10,2013-04-26 05:52:00,
2013-04-26 02:07:00,61.3,60.0,30.20,East,80,0.0,1.0,96,0.00,,,0.00,weatherlink.com 1.10,2013-04-26 06:07:00,
2013-04-26 02:22:00,61.0,60.0,30.20,East,80,0.0,1.0,96,0.00,,,0.00,weatherlink.com 1.10,2013-04-26 06:22:00,
2013-04-26 02:38:00,61.5,61.0,30.19,East,80,0.0,1.0,97,0.00,,,0.00,weatherlink.com 1.10,2013-04-26 06:38:00,
2013-04-26 02:53:00,62.5,62.0,30.19,East,80,0.0,0.0,97,0.00,,,0.00,weatherlink.com 1.10,2013-04-26 06:53:00,
2013-04-26 03:07:00,64.9,64.0,30.20,East,86,1.0,3.0,98,0.00,,,0.00,weatherlink.com 1.10,2013-04-26 07:07:00,
2013-04-26 03:22:00,65.0,64.0,30.20,ENE,67,0.0,2.0,95,0.00,,,0.00,weatherlink.com 1.10,2013-04-26 07:22:00,
2013-04-26 03:37:00,65.1,63.0,30.20,ENE,67,1.0,2.0,94,0.00,,,0.00,weatherlink.com 1.10,2013-04-26 07:37:00,
2013-04-26 03:52:00,65.1,63.0,30.20,ENE,67,1.0,2.0,94,0.00,,,0.00,weatherlink.com 1.10,2013-04-26 07:52:00,
2013-04-26 04:07:00,64.8,63.0,30.20,ENE,67,1.0,2.0,93,0.00,,,0.00,weatherlink.com 1.10,2013-04-26 08:07:00,
2013-04-26 04:22:00,64.2,62.0,30.20,ENE,77,1.0,4.0,93,0.00,,,0.00,weatherlink.com 1.10,2013-04-26 08:22:00,
2013-04-26 04:37:00,64.3,62.0,30.21,ENE,76,0.0,2.0,93,0.00,,,0.00,weatherlink.com 1.10,2013-04-26 08:37:00,
2013-04-26 04:52:00,64.2,62.0,30.21,ENE,76,0.0,2.0,93,0.00,,,0.00,weatherlink.com 1.10,2013-04-26 08:52:00,
2013-04-26 05:07:00,64.0,62.0,30.21,East,79,1.0,3.0,94,0.00,,,0.00,weatherlink.com 1.10,2013-04-26 09:07:00,
2013-04-26 05:22:00,63.6,62.0,30.21,East,85,0.0,2.0,94,0.00,,,0.00,weatherlink.com 1.10,2013-04-26 09:22:00,
2013-04-26 05:37:00,63.2,62.0,30.22,East,88,2.0,3.0,94,0.00,,,0.00,weatherlink.com 1.10,2013-04-26 09:37:00,
2013-04-26 05:52:00,63.3,61.0,30.23,East,82,1.0,2.0,93,0.00,,,0.00,weatherlink.com 1.10,2013-04-26 09:52:00,
2013-04-26 06:07:00,63.6,62.0,30.23,ENE,75,1.0,2.0,93,0.00,,,0.00,weatherlink.com 1.10,2013-04-26 10:07:00,
2013-04-26 06:22:00,63.5,61.0,30.24,East,92,2.0,3.0,91,0.00,,,0.00,weatherlink.com 1.10,2013-04-26 10:22:00,
2013-04-26 06:38:00,63.3,60.0,30.25,East,92,0.0,3.0,90,0.00,,,0.00,weatherlink.com 1.10,2013-04-26 10:38:00,
2013-04-26 06:53:00,63.1,60.0,30.25,East,92,1.0,2.0,90,0.00,,,0.00,weatherlink.com 1.10,2013-04-26 10:53:00,
2013-04-26 07:08:00,62.7,60.0,30.26,East,92,1.0,2.0,90,0.00,,,0.00,weatherlink.com 1.10,2013-04-26 11:08:00,
2013-04-26 07:23:00,62.5,60.0,30.27,East,92,0.0,2.0,91,0.00,,,0.00,weatherlink.com 1.10,2013-04-26 11:23:00,
2013-04-26 07:38:00,62.8,60.0,30.28,East,99,2.0,3.0,89,0.00,,,0.00,weatherlink.com 1.10,2013-04-26 11:38:00,
2013-04-26 07:53:00,63.1,60.0,30.29,East,82,0.0,3.0,89,0.00,,,0.00,weatherlink.com 1.10,2013-04-26 11:53:00,
2013-04-26 08:08:00,63.3,60.0,30.29,ENE,77,0.0,3.0,88,0.00,,,0.00,weatherlink.com 1.10,2013-04-26 12:08:00,
2013-04-26 08:23:00,63.8,59.0,30.30,East,96,2.0,5.0,85,0.00,,,0.00,weatherlink.com 1.10,2013-04-26 12:23:00,
2013-04-26 08:38:00,64.4,60.0,30.31,ENE,65,0.0,3.0,85,0.00,,,0.00,weatherlink.com 1.10,2013-04-26 12:38:00,
2013-04-26 08:53:00,64.5,60.0,30.32,ENE,75,1.0,6.0,84,0.00,,,0.00,weatherlink.com 1.10,2013-04-26 12:53:00,
2013-04-26 09:08:00,64.8,59.0,30.32,East,83,1.0,3.0,82,0.00,,,0.00,weatherlink.com 1.10,2013-04-26 13:08:00,
2013-04-26 09:23:00,66.5,61.0,30.33,NE,42,2.0,5.0,81,0.00,,,0.00,weatherlink.com 1.10,2013-04-26 13:23:00,
2013-04-26 09:38:00,65.9,59.0,30.33,East,96,3.0,7.0,79,0.00,,,0.00,weatherlink.com 1.10,2013-04-26 13:38:00,
2013-04-26 09:53:00,67.0,60.0,30.33,NE,42,1.0,7.0,78,0.00,,,0.00,weatherlink.com 1.10,2013-04-26 13:53:00,
2013-04-26 10:08:00,67.3,60.0,30.34,ENE,78,3.0,6.0,76,0.00,,,0.00,weatherlink.com 1.10,2013-04-26 14:08:00,
2013-04-26 10:23:00,67.5,59.0,30.35,East,98,1.0,5.0,74,0.00,,,0.00,weatherlink.com 1.10,2013-04-26 14:23:00,
2013-04-26 10:38:00,69.0,60.0,30.35,NNE,28,1.0,8.0,73,0.00,,,0.00,weatherlink.com 1.10,2013-04-26 14:38:00,
2013-04-26 10:53:00,69.9,61.0,30.36,East,81,2.0,7.0,73,0.00,,,0.00,weatherlink.com 1.10,2013-04-26 14:53:00,
2013-04-26 11:08:00,70.5,59.0,30.36,WSW,237,1.0,6.0,68,0.00,,,0.00,weatherlink.com 1.10,2013-04-26 15:08:00,
2013-04-26 11:23:00,71.7,59.0,30.36,East,83,1.0,4.0,65,0.00,,,0.00,weatherlink.com 1.10,2013-04-26 15:23:00,
2013-04-26 11:38:00,72.1,59.0,30.36,East,93,2.0,7.0,63,0.00,,,0.00,weatherlink.com 1.10,2013-04-26 15:38:00,
2013-04-26 11:53:00,72.4,60.0,30.36,NE,53,2.0,9.0,65,0.00,,,0.00,weatherlink.com 1.10,2013-04-26 15:53:00,
2013-04-26 12:08:00,73.3,59.0,30.35,East,91,5.0,6.0,62,0.00,,,0.00,weatherlink.com 1.10,2013-04-26 16:08:00,
2013-04-26 12:23:00,74.7,60.0,30.34,NE,50,2.0,7.0,60,0.00,,,0.00,weatherlink.com 1.10,2013-04-26 16:23:00,
2013-04-26 12:38:00,75.5,58.0,30.34,NE,44,1.0,8.0,54,0.00,,,0.00,weatherlink.com 1.10,2013-04-26 16:38:00,
2013-04-26 12:53:00,75.3,57.0,30.34,NNE,26,2.0,4.0,53,0.00,,,0.00,weatherlink.com 1.10,2013-04-26 16:53:00,
2013-04-26 13:09:00,75.8,52.0,30.33,NE,46,4.0,5.0,44,0.00,,,0.00,weatherlink.com 1.10,2013-04-26 17:09:00,
2013-04-26 13:24:00,76.1,49.0,30.33,NE,34,4.0,7.0,39,0.00,,,0.00,weatherlink.com 1.10,2013-04-26 17:24:00,
2013-04-26 13:39:00,76.5,45.0,30.32,NE,55,3.0,7.0,33,0.00,,,0.00,weatherlink.com 1.10,2013-04-26 17:39:00,
2013-04-26 13:54:00,75.8,44.0,30.32,East,92,3.0,8.0,32,0.00,,,0.00,weatherlink.com 1.10,2013-04-26 17:54:00,
2013-04-26 14:09:00,75.9,43.0,30.32,ESE,115,4.0,7.0,31,0.00,,,0.00,weatherlink.com 1.10,2013-04-26 18:09:00,
2013-04-26 14:24:00,76.4,44.0,30.32,East,100,5.0,7.0,31,0.00,,,0.00,weatherlink.com 1.10,2013-04-26 18:24:00,
2013-04-26 14:39:00,75.3,45.0,30.32,NW,323,1.0,5.0,34,0.00,,,0.00,weatherlink.com 1.10,2013-04-26 18:39:00,
2013-04-26 14:54:00,74.8,46.0,30.32,ENE,66,3.0,8.0,36,0.00,,,0.00,weatherlink.com 1.10,2013-04-26 18:54:00,
2013-04-26 15:09:00,75.7,49.0,30.32,ENE,57,3.0,6.0,39,0.00,,,0.00,weatherlink.com 1.10,2013-04-26 19:09:00,
2013-04-26 15:24:00,75.1,51.0,30.32,ENE,75,5.0,7.0,43,0.00,,,0.00,weatherlink.com 1.10,2013-04-26 19:24:00,
2013-04-26 15:39:00,74.6,49.0,30.32,ESE,109,3.0,7.0,41,0.00,,,0.00,weatherlink.com 1.10,2013-04-26 19:39:00,
2013-04-26 15:54:00,74.0,51.0,30.31,East,95,2.0,7.0,45,0.00,,,0.00,weatherlink.com 1.10,2013-04-26 19:54:00,
2013-04-26 16:09:00,74.0,51.0,30.31,NE,35,1.0,7.0,45,0.00,,,0.00,weatherlink.com 1.10,2013-04-26 20:09:00,
2013-04-26 16:24:00,73.0,50.0,30.31,ENE,75,2.0,8.0,44,0.00,,,0.00,weatherlink.com 1.10,2013-04-26 20:24:00,
2013-04-26 16:39:00,72.8,51.0,30.30,ESE,114,3.0,8.0,46,0.00,,,0.00,weatherlink.com 1.10,2013-04-26 20:39:00,
2013-04-26 16:54:00,72.1,48.0,30.30,East,86,3.0,6.0,43,0.00,,,0.00,weatherlink.com 1.10,2013-04-26 20:54:00,
2013-04-26 17:09:00,71.9,48.0,30.30,ESE,105,1.0,7.0,43,0.00,,,0.00,weatherlink.com 1.10,2013-04-26 21:09:00,
2013-04-26 17:24:00,71.3,46.0,30.30,ESE,103,1.0,7.0,41,0.00,,,0.00,weatherlink.com 1.10,2013-04-26 21:24:00,
2013-04-26 17:39:00,70.8,48.0,30.30,East,82,3.0,7.0,45,0.00,,,0.00,weatherlink.com 1.10,2013-04-26 21:39:00,
2013-04-26 17:54:00,70.5,50.0,30.30,ENE,71,2.0,6.0,48,0.00,,,0.00,weatherlink.com 1.10,2013-04-26 21:54:00,
2013-04-26 18:09:00,69.9,51.0,30.30,ENE,71,1.0,7.0,52,0.00,,,0.00,weatherlink.com 1.10,2013-04-26 22:09:00,
2013-04-26 18:24:00,69.4,53.0,30.30,East,97,6.0,6.0,56,0.00,,,0.00,weatherlink.com 1.10,2013-04-26 22:24:00,
2013-04-26 18:39:00,69.0,54.0,30.30,East,84,2.0,5.0,59,0.00,,,0.00,weatherlink.com 1.10,2013-04-26 22:39:00,
2013-04-26 18:54:00,68.3,54.0,30.30,East,86,2.0,5.0,60,0.00,,,0.00,weatherlink.com 1.10,2013-04-26 22:54:00,
2013-04-26 19:09:00,67.5,53.0,30.30,NNE,19,1.0,6.0,61,0.00,,,0.00,weatherlink.com 1.10,2013-04-26 23:09:00,
2013-04-26 19:24:00,66.8,53.0,30.30,East,83,1.0,4.0,61,0.00,,,0.00,weatherlink.com 1.10,2013-04-26 23:24:00,
2013-04-26 19:39:00,66.1,53.0,30.31,East,90,1.0,3.0,63,0.00,,,0.00,weatherlink.com 1.10,2013-04-26 23:39:00,
2013-04-26 19:54:00,65.4,53.0,30.32,ESE,104,1.0,5.0,65,0.00,,,0.00,weatherlink.com 1.10,2013-04-26 23:54:00,
2013-04-26 20:09:00,64.4,54.0,30.32,East,88,0.0,1.0,69,0.00,,,0.00,weatherlink.com 1.10,2013-04-27 00:09:00,
2013-04-26 20:24:00,63.6,54.0,30.33,ESE,102,0.0,2.0,72,0.00,,,0.00,weatherlink.com 1.10,2013-04-27 00:24:00,
2013-04-26 20:39:00,63.6,55.0,30.33,East,98,0.0,3.0,73,0.00,,,0.00,weatherlink.com 1.10,2013-04-27 00:39:00,
2013-04-26 20:54:00,62.9,55.0,30.33,East,98,1.0,3.0,75,0.00,,,0.00,weatherlink.com 1.10,2013-04-27 00:54:00,
2013-04-26 21:09:00,62.6,55.0,30.34,East,96,1.0,2.0,77,0.00,,,0.00,weatherlink.com 1.10,2013-04-27 01:09:00,
2013-04-26 21:24:00,62.1,56.0,30.34,East,96,0.0,2.0,79,0.00,,,0.00,weatherlink.com 1.10,2013-04-27 01:24:00,
2013-04-26 21:39:00,60.9,55.0,30.34,East,96,0.0,2.0,82,0.00,,,0.00,weatherlink.com 1.10,2013-04-27 01:39:00,
2013-04-26 21:54:00,60.6,56.0,30.34,East,96,0.0,1.0,84,0.00,,,0.00,weatherlink.com 1.10,2013-04-27 01:54:00,
2013-04-26 22:09:00,59.9,56.0,30.34,East,96,0.0,2.0,86,0.00,,,0.00,weatherlink.com 1.10,2013-04-27 02:09:00,
2013-04-26 22:24:00,59.8,56.0,30.34,East,96,0.0,1.0,87,0.00,,,0.00,weatherlink.com 1.10,2013-04-27 02:24:00,
2013-04-26 22:39:00,59.7,56.0,30.33,East,96,0.0,0.0,86,0.00,,,0.00,weatherlink.com 1.10,2013-04-27 02:39:00,
2013-04-26 22:54:00,60.6,56.0,30.31,East,96,1.0,2.0,85,0.00,,,0.00,weatherlink.com 1.10,2013-04-27 02:54:00,
2013-04-26 23:09:00,60.8,56.0,30.30,East,98,0.0,3.0,85,0.00,,,0.00,weatherlink.com 1.10,2013-04-27 03:09:00,
2013-04-26 23:24:00,60.2,56.0,30.30,East,98,0.0,2.0,85,0.00,,,0.00,weatherlink.com 1.10,2013-04-27 03:24:00,
2013-04-26 23:39:00,59.0,55.0,30.31,East,98,0.0,1.0,87,0.00,,,0.00,weatherlink.com 1.10,2013-04-27 03:39:00,
2013-04-26 23:54:00,58.8,55.0,30.30,East,98,0.0,0.0,88,0.00,,,0.00,weatherlink.com 1.10,2013-04-27 03:54:00,